Starlink 11182

operational
NORAD ID: 60399 Int'l Des: 2024-141 Owner: SPXS Country: US Constellation: starlink
LEOCIRCULAR

关于 Starlink 11182

正在加载描述...

实时位置

正在加载3D地球...

即将过境

高度历史

Altitude vs Time

uPlot chart will show altitude changes over time

两行轨道根数

1 60399U 24141B 25353.52134602 .00001301 00000-0 15600-4 0 9991
2 60399 53.1613 121.3153 0001676 93.1858 266.9352 15.69715496 79156
Epoch: Dec 19, 2025 • Age: 20 hours

当前状态

高度 364.3 km
速度 7.70 km/s
星下点 49.02°N, 43.08°W
发射日期 Aug 10, 2024
运行时间 1.3 years
类型 internet

技术详情

分类 Payload
质量 960.00 kg
干质量 910.00 kg
总质量 960.00 kg
长度 0.30 m
直径 4.10 m
跨度 29.00 m
形状 Box + pan
制造商 SPXS
平台类型 Starlink V2MD
阶段状态 In Orbit
所有者/国家 SPXS/US

大型星座

Loading constellations...